Location: Lombard
(41.8800°N, 88.0080°W)
Time: 04:32:46
(UTC-05:00)

Vanguard 2 Rocket - Pass Details

Date: 22 February 2024
Orbit: 555 x 3307 km, 32.9° (Epoch: 12 April)

Event Time Altitude Azimuth Distance (km) Brightness Sun altitude
Rises 19:13:21 0° 274° (W) 5,978 12.8 -19.3°
Reaches altitude 10° 19:16:57 10° 270° (W) 5,272 12.0 -20.0°
Maximum altitude 19:32:59 51° 201° (SSW) 3,746 10.0 -22.9°
Enters shadow 19:48:14 19° 138° (SE) 5,460 10.4 -25.7°
Drops below altitude 10° 19:51:49 10° 133° (SE) 6,082 - -26.4°
Sets 19:56:24 0° 129° (SE) 6,915 - -27.2°
